Weather History for KIIY - March, 2014

Change the Weather History Date:

Tuesday, March 25, 2014

  Actual Average (KAHN) Record (KAHN)
Temperature  
Mean Temperature 48 °F 57 °F  
Max Temperature 57 °F 69 °F 89 °F (2007)
Min Temperature 39 °F 44 °F 26 °F (1956)
Degree Days  
Heating Degree Days 17 9  
Month to date heating degree days 291  
Since 1 July heating degree days 2546  
Cooling Degree Days 0 0  
Month to date cooling degree days 0  
Year to date cooling degree days 1  
Moisture  
Dew Point 31 °F    
Average Humidity 60    
Maximum Humidity 100    
Minimum Humidity 26    
Precipitation  
Precipitation 0.00 in 0.13 in 3.82 in (1964)
Month to date precipitation 3.61  
Year to date precipitation 12.14  
Snow  
Snow 0.00 in 0.10 in 0.00 in (2002)
Month to date snowfall 0.7  
Since 1 July snowfall 2.8  
Snow Depth -    
Sea Level Pressure  
Sea Level Pressure 29.95 in    
Wind  
Wind Speed 8 mph (WNW)    
Max Wind Speed 30 mph    
Max Gust Speed 44 mph    
Visibility 9 miles    
Events Rain    
T = Trace of Precipitation, MM = Missing Value Source: NWS Daily Summary

Daily Weather History Graph

Daily Weather History Graph

Search for Another Location

Airport or City:

Trip Planner

Search our weather history database for the weather conditions in past years. The results will help you decide how hot, cold, wet, or windy it might be!

Date:

Astronomy

Mar. 25, 2014 Rise Set
Actual Time 7:28 AM EDT 7:46 PM EDT
Civil Twilight 7:03 AM EDT 8:11 PM EDT
Nautical Twilight 6:34 AM EDT 8:40 PM EDT
Astronomical Twilight 6:04 AM EDT 9:10 PM EDT
Moon 3:34 AM EDT (3/25) 2:29 PM EDT (3/25)
Length of Visible Light 13h 08m
Length of Day
12h 18m
Waning Crescent, 32% of the Moon is Illuminated
Mar 25
Waning Crescent
Mar 30
New
Apr 7
First Quarter
Apr 15
Full
Apr 22
Last Quarter

Hourly Weather History & Observations

Time (EDT) Temp. Windchill Dew Point Humidity Pressure Visibility Wind Dir Wind Speed Gust Speed Precip Events Conditions
12:15 AM 44.6 °F 42.2 °F 37.4 °F 76% 30.02 in 10.0 mi East 4.6 mph - N/A   Scattered Clouds
12:35 AM 44.6 °F 42.2 °F 39.2 °F 81% 30.01 in 10.0 mi ESE 4.6 mph - N/A   Clear
12:55 AM 46.4 °F 44.3 °F 35.6 °F 66% 30.01 in 10.0 mi SE 4.6 mph - N/A   Clear
1:15 AM 46.4 °F 42.9 °F 35.6 °F 66% 30.00 in 10.0 mi SSE 6.9 mph - N/A   Clear
1:35 AM 46.4 °F 42.4 °F 35.6 °F 66% 29.99 in 10.0 mi SSE 8.1 mph - N/A   Scattered Clouds
1:55 AM 46.4 °F 42.4 °F 35.6 °F 66% 29.99 in 10.0 mi SSE 8.1 mph - N/A   Scattered Clouds
2:15 AM 46.4 °F 41.9 °F 37.4 °F 71% 29.99 in 10.0 mi SSE 9.2 mph - N/A   Scattered Clouds
2:35 AM 46.4 °F 42.4 °F 37.4 °F 71% 29.97 in 10.0 mi SSE 8.1 mph - N/A   Mostly Cloudy
2:55 AM 44.6 °F 40.2 °F 37.4 °F 76% 29.97 in 10.0 mi SSE 8.1 mph - N/A   Mostly Cloudy
3:15 AM 44.6 °F 40.7 °F 37.4 °F 76% 29.96 in 10.0 mi SSE 6.9 mph - N/A   Scattered Clouds
3:35 AM 44.6 °F 40.2 °F 37.4 °F 76% 29.94 in 10.0 mi SSE 8.1 mph - N/A   Clear
3:55 AM 44.6 °F 40.2 °F 39.2 °F 81% 29.92 in 10.0 mi SSE 8.1 mph - N/A   Mostly Cloudy
4:15 AM 44.6 °F 40.7 °F 39.2 °F 81% 29.92 in 10.0 mi SSE 6.9 mph - N/A   Overcast
4:35 AM 44.6 °F 41.4 °F 39.2 °F 81% 29.91 in 10.0 mi SSE 5.8 mph - N/A   Mostly Cloudy
4:55 AM 44.6 °F 40.7 °F 39.2 °F 81% 29.89 in 10.0 mi South 6.9 mph - N/A   Mostly Cloudy
5:15 AM 44.6 °F 42.2 °F 39.2 °F 81% 29.89 in 10.0 mi South 4.6 mph - N/A Rain Rain
5:35 AM 44.6 °F 43.1 °F 42.8 °F 93% 29.89 in 10.0 mi South 3.5 mph - N/A   Scattered Clouds
5:55 AM 44.6 °F 42.2 °F 42.8 °F 93% 29.88 in 10.0 mi South 4.6 mph - N/A   Scattered Clouds
6:15 AM 44.6 °F 41.4 °F 42.8 °F 93% 29.88 in 10.0 mi South 5.8 mph - N/A   Scattered Clouds
6:35 AM 44.6 °F 40.7 °F 42.8 °F 93% 29.91 in 10.0 mi NNW 6.9 mph - N/A   Mostly Cloudy
6:55 AM 44.6 °F 43.1 °F 44.6 °F 100% 29.90 in 7.0 mi NNW 3.5 mph - N/A Rain Light Rain
7:15 AM 44.6 °F - 44.6 °F 100% 29.90 in 5.0 mi Calm Calm - N/A Rain Light Rain
7:35 AM 44.6 °F 43.1 °F 44.6 °F 100% 29.91 in 5.0 mi NW 3.5 mph - N/A Rain Light Rain
7:55 AM 44.6 °F - 44.6 °F 100% 29.91 in 4.0 mi Calm Calm - N/A   Mostly Cloudy
8:15 AM 44.6 °F - 44.6 °F 100% 29.91 in 3.0 mi Calm Calm - N/A   Mostly Cloudy
8:35 AM 44.6 °F 43.1 °F 44.6 °F 100% 29.90 in 3.0 mi East 3.5 mph - N/A   Mostly Cloudy
8:55 AM 44.6 °F - 44.6 °F 100% 29.90 in 4.0 mi Calm Calm - N/A   Mostly Cloudy
9:15 AM 44.6 °F - 44.6 °F 100% 29.90 in 4.0 mi Calm Calm - N/A   Mostly Cloudy
9:35 AM 44.6 °F - 44.6 °F 100% 29.90 in 5.0 mi Calm Calm - N/A   Mostly Cloudy
9:55 AM 44.6 °F - 44.6 °F 100% 29.90 in 7.0 mi Calm Calm - N/A   Scattered Clouds
10:15 AM 46.4 °F - 44.6 °F 93% 29.90 in 7.0 mi Calm Calm - N/A   Mostly Cloudy
10:35 AM 48.2 °F - 46.4 °F 93% 29.90 in 10.0 mi SW 5.8 mph - N/A   Mostly Cloudy
10:55 AM 50.0 °F - 44.6 °F 82% 29.89 in 7.0 mi West 6.9 mph - N/A   Mostly Cloudy
11:15 AM 51.8 °F - 44.6 °F 76% 29.89 in 10.0 mi WNW 9.2 mph - N/A   Mostly Cloudy
11:35 AM 53.6 °F - 42.8 °F 67% 29.88 in 10.0 mi NW 12.7 mph 19.6 mph N/A   Scattered Clouds
11:55 AM 53.6 °F - 39.2 °F 58% 29.87 in 10.0 mi WNW 16.1 mph 23.0 mph N/A   Scattered Clouds
12:15 PM 55.4 °F - 35.6 °F 47% 29.87 in 10.0 mi NW 17.3 mph 24.2 mph N/A   Clear
12:35 PM 55.4 °F - 33.8 °F 44% 29.88 in 10.0 mi NW 15.0 mph 23.0 mph N/A   Clear
12:55 PM 53.6 °F - 33.8 °F 47% 29.88 in 10.0 mi WNW 15.0 mph 29.9 mph N/A   Scattered Clouds
1:15 PM 53.6 °F - 32.0 °F 44% 29.87 in 10.0 mi NW 15.0 mph 21.9 mph N/A   Scattered Clouds
1:35 PM 53.6 °F - 28.4 °F 38% 29.88 in 10.0 mi NW 15.0 mph 26.5 mph N/A   Scattered Clouds
1:55 PM 55.4 °F - 26.6 °F 33% 29.87 in 10.0 mi WNW 24.2 mph 31.1 mph N/A   Clear
2:15 PM 53.6 °F - 24.8 °F 33% 29.88 in 10.0 mi NW 17.3 mph 32.2 mph N/A   Clear
2:35 PM 53.6 °F - 23.0 °F 30% 29.88 in 10.0 mi WNW 16.1 mph 25.3 mph N/A   Clear
2:55 PM 57.2 °F - 23.0 °F 27% 29.87 in 10.0 mi NW 16.1 mph 29.9 mph N/A   Clear
3:15 PM 55.4 °F - 21.2 °F 26% 29.87 in 10.0 mi WNW 18.4 mph 32.2 mph N/A   Clear
3:35 PM 53.6 °F - 21.2 °F 28% 29.89 in 10.0 mi WNW 23.0 mph 35.7 mph N/A   Clear
3:55 PM 53.6 °F - 21.2 °F 28% 29.89 in 10.0 mi WNW 23.0 mph 35.7 mph N/A   Clear
4:15 PM 53.6 °F - 21.2 °F 28% 29.90 in 10.0 mi West 29.9 mph 43.7 mph N/A   Clear
4:35 PM 50.0 °F - 19.4 °F 30% 29.91 in 10.0 mi NW 15.0 mph 38.0 mph N/A   Clear
4:55 PM 53.6 °F - 21.2 °F 28% 29.92 in 10.0 mi WNW 25.3 mph 34.5 mph N/A   Clear
5:15 PM 50.0 °F - 19.4 °F 30% 29.93 in 10.0 mi WNW 23.0 mph 38.0 mph N/A   Clear
5:35 PM 51.8 °F - 19.4 °F 28% 29.94 in 10.0 mi WNW 20.7 mph 36.8 mph N/A   Clear
5:55 PM 48.2 °F - 17.6 °F 30% 29.96 in 10.0 mi NW 13.8 mph 38.0 mph N/A   Clear
6:15 PM 48.2 °F - 17.6 °F 30% 29.96 in 10.0 mi WNW 12.7 mph 33.4 mph N/A   Clear
6:35 PM 44.6 °F 37.8 °F 19.4 °F 37% 29.98 in 10.0 mi WNW 15.0 mph 32.2 mph N/A   Clear
6:55 PM 46.4 °F 39.8 °F 17.6 °F 32% 29.99 in 10.0 mi NW 16.1 mph 29.9 mph N/A   Clear
7:15 PM 44.6 °F 38.1 °F 19.4 °F 37% 30.00 in 10.0 mi NNW 13.8 mph 24.2 mph N/A   Clear
7:35 PM 44.6 °F 38.8 °F 17.6 °F 34% 30.01 in 10.0 mi NNW 11.5 mph 18.4 mph N/A   Clear
7:55 PM 44.6 °F 38.8 °F 19.4 °F 37% 30.02 in 10.0 mi NW 11.5 mph 18.4 mph N/A   Clear
8:15 PM 42.8 °F 38.0 °F 17.6 °F 36% 30.04 in 10.0 mi NW 8.1 mph - N/A   Clear
8:35 PM 42.8 °F 38.6 °F 17.6 °F 36% 30.04 in 10.0 mi NW 6.9 mph - N/A   Clear
8:55 PM 42.8 °F 40.1 °F 19.4 °F 39% 30.05 in 10.0 mi NW 4.6 mph - N/A   Clear
9:15 PM 41.0 °F 38.0 °F 19.4 °F 42% 30.06 in 10.0 mi NW 4.6 mph - N/A   Clear
9:35 PM 39.2 °F 30.8 °F 19.4 °F 45% 30.07 in 10.0 mi NW 15.0 mph 19.6 mph N/A   Clear
9:55 PM 42.8 °F 34.5 °F 19.4 °F 39% 30.08 in 10.0 mi NW 18.4 mph 25.3 mph N/A   Clear
10:15 PM 42.8 °F 37.0 °F 19.4 °F 39% 30.09 in 10.0 mi NW 10.4 mph 25.3 mph N/A   Clear
10:35 PM 41.0 °F 34.7 °F 19.4 °F 42% 30.11 in 10.0 mi NW 10.4 mph 20.7 mph N/A   Clear
10:55 PM 39.2 °F 33.6 °F 19.4 °F 45% 30.11 in 10.0 mi NW 8.1 mph - N/A   Clear
11:15 PM 39.2 °F 34.2 °F 19.4 °F 45% 30.12 in 10.0 mi NW 6.9 mph - N/A   Clear
11:35 PM 39.2 °F 34.2 °F 19.4 °F 45% 30.13 in 10.0 mi NW 6.9 mph - N/A   Clear
11:55 PM 39.2 °F 33.6 °F 19.4 °F 45% 30.13 in 10.0 mi NW 8.1 mph 17.3 mph N/A   Clear